DW1449 Weather Reports


Display with metric or nautical units.
time (UTC)temp
F
wind
direction
speed
MPH
gust
MPH
rain 1hr
in
rain 24hr
in
rain mn
in
humidity
%
barometer
mb
20260506165037 52 0.0 0.0 0.00 0.00 0.00 47 1012.6
20260506164547 52 0.0 0.0 0.00 0.00 0.00 47 1012.5
20260506164036 52 0.0 0.0 0.00 0.00 0.00 45 1012.5
20260506163539 52 0.0 0.0 0.00 0.00 0.00 46 1012.7
20260506163048 52 0.0 0.0 0.00 0.00 0.00 45 1012.6
20260506162537 52 0.0 0.0 0.00 0.00 0.00 47 1012.5
20260506162036 53 0.0 0.0 0.00 0.00 0.00 45 1012.6
20260506161546 53 0.0 0.0 0.00 0.00 0.00 45 1012.4
20260506161037 53 0.0 0.0 0.00 0.00 0.00 47 1012.5
20260506160536 53 0.0 0.0 0.00 0.00 0.00 46 1012.6
20260506160059 53 0.0 0.0 0.00 0.00 0.00 47 1012.5
20260506155534 53 0.0 0.0 0.00 0.00 0.00 46 1012.5
20260506155037 53 0.0 0.0 0.00 0.00 0.00 46 1012.6
20260506154551 54 0.0 0.0 0.00 0.00 0.00 47 1012.7
20260506154036 54 0.0 0.0 0.00 0.00 0.00 45 1012.5
20260506153535 54 0.0 0.0 0.00 0.00 0.00 45 1012.5
20260506153046 54 0.0 0.0 0.00 0.00 0.00 44 1012.4
20260506152536 54 0.0 0.0 0.00 0.00 0.00 43 1012.4
20260506152036 54 0.0 0.0 0.00 0.00 0.00 44 1012.4
20260506151550 54 0.0 0.0 0.00 0.00 0.00 45 1012.3
20260506151037 54 0.0 0.0 0.00 0.00 0.00 45 1012.4
20260506150537 54 0.0 0.0 0.00 0.00 0.00 43 1012.3
20260506150050 55 0.0 0.0 0.00 0.00 0.00 45 1012.3
20260506145537 55 0.0 0.0 0.00 0.00 0.00 43 1012.2
20260506145035 55 0.0 0.0 0.00 0.00 0.00 43 1012.2
20260506144550 54 0.0 0.0 0.00 0.00 0.00 43 1012.4
20260506144034 54 0.0 0.0 0.00 0.00 0.00 43 1012.2
20260506143536 55 0.0 0.0 0.00 0.00 0.00 42 1012.4
20260506143048 55 0.0 0.0 0.00 0.00 0.00 45 1012.3
20260506142534 55 0.0 0.0 0.00 0.00 0.00 42 1012.3
20260506142038 55 0.0 0.0 0.00 0.00 0.00 41 1012.2
20260506141549 55 0.0 0.0 0.00 0.00 0.00 41 1012.2
20260506141035 55 0.0 0.0 0.00 0.00 0.00 40 1012.2
20260506140535 55 0.0 0.0 0.00 0.00 0.00 43 1012.2
20260506140048 55 0.0 0.0 0.00 0.00 0.00 42 1012.2
20260506135534 55 0.0 0.0 0.00 0.00 0.00 44 1012.1
20260506135034 55 0.0 0.0 0.00 0.00 0.00 42 1012.2
20260506134548 55 0.0 0.0 0.00 0.00 0.00 41 1012.0
20260506134034 56 0.0 0.0 0.00 0.00 0.00 41 1012.1
20260506133534 56 0.0 0.0 0.00 0.00 0.00 44 1012.0
20260506133046 55 0.0 0.0 0.00 0.00 0.00 44 1011.9
20260506132534 55 0.0 0.0 0.00 0.00 0.00 43 1012.0
20260506132040 55 0.0 0.0 0.00 0.00 0.00 44 1012.0
20260506131557 55 0.0 0.0 0.00 0.00 0.00 44 1012.1
20260506131035 55 0.0 0.0 0.00 0.00 0.00 45 1012.0
20260506130535 56 0.0 0.0 0.00 0.00 0.00 48 1011.9
20260506130048 56 0.0 0.0 0.00 0.00 0.00 47 1011.8
20260506125534 55 0.0 0.0 0.00 0.00 0.00 50 1011.9
20260506125035 54 0.0 0.0 0.00 0.00 0.00 51 1011.9
20260506124540 54 0.0 0.0 0.00 0.00 0.00 51 1012.0
20260506124034 54 0.0 0.0 0.00 0.00 0.00 50 1011.9
20260506123536 55 0.0 0.0 0.00 0.00 0.00 50 1012.1
20260506123042 55 0.0 0.0 0.00 0.00 0.00 53 1011.9
20260506122535 55 0.0 0.0 0.00 0.00 0.00 51 1011.9
20260506122034 55 0.0 0.0 0.00 0.00 0.00 53 1011.8
20260506121544 55 0.0 0.0 0.00 0.00 0.00 55 1011.7
20260506121034 55 0.0 0.0 0.00 0.00 0.00 54 1011.9
20260506120538 55 0.0 0.0 0.00 0.00 0.00 54 1011.7
20260506120046 54 0.0 0.0 0.00 0.00 0.00 56 1011.7
20260506115535 55 0.0 0.0 0.00 0.00 0.00 55 1011.7
20260506115033 55 0.0 0.0 0.00 0.00 0.00 55 1011.8
20260506114549 55 0.0 0.0 0.00 0.00 0.00 60 1011.7
20260506114035 54 0.0 0.0 0.00 0.00 0.00 58 1011.8
20260506113535 55 0.0 0.0 0.00 0.00 0.00 59 1011.7
20260506113043 54 0.0 0.0 0.00 0.00 0.00 63 1011.7
20260506112535 54 0.0 0.0 0.00 0.00 0.00 63 1011.9
20260506112035 54 0.0 0.0 0.00 0.00 0.00 61 1011.8
20260506111542 54 0.0 0.0 0.00 0.00 0.00 64 1011.8
20260506111036 54 0.0 0.0 0.00 0.00 0.00 63 1011.7
20260506110535 54 0.0 0.0 0.00 0.00 0.00 63 1011.7
20260506110047 54 0.0 0.0 0.00 0.00 0.00 64 1011.8
20260506105535 53 0.0 0.0 0.00 0.00 0.00 66 1011.8
20260506105035 54 0.0 0.0 0.00 0.00 0.00 70 1011.8
20260506104549 53 0.0 0.0 0.00 0.00 0.00 70 1011.8
20260506104035 53 0.0 0.0 0.00 0.00 0.00 72 1011.9
20260506103535 53 0.0 0.0 0.00 0.00 0.00 72 1011.9
20260506103053 53 0.0 0.0 0.00 0.00 0.00 73 1011.9
20260506102535 53 0.0 0.0 0.00 0.00 0.00 75 1011.7
20260506102035 53 0.0 0.0 0.00 0.00 0.00 75 1011.9
20260506101541 52 0.0 0.0 0.00 0.00 0.00 76 1011.9
20260506101035 52 0.0 0.0 0.00 0.00 0.00 76 1011.9
20260506100538 51 0.0 0.0 0.00 0.00 0.00 75 1011.8
20260506100046 51 0.0 0.0 0.00 0.00 0.00 75 1012.1
20260506095535 51 0.0 0.0 0.00 0.00 0.00 76 1012.0
20260506095038 51 0.0 0.0 0.00 0.00 0.00 77 1012.0
20260506094607 51 0.0 0.0 0.00 0.00 0.00 77 1011.9
20260506094034 51 0.0 0.0 0.00 0.00 0.00 76 1012.0
20260506093534 51 0.0 0.0 0.00 0.00 0.00 77 1012.0
20260506093045 50 0.0 0.0 0.00 0.00 0.00 77 1012.1
20260506092534 50 0.0 0.0 0.00 0.00 0.00 76 1011.9
20260506092034 50 0.0 0.0 0.00 0.00 0.00 76 1012.0
20260506091545 50 0.0 0.0 0.00 0.00 0.00 75 1011.9
20260506091035 50 0.0 0.0 0.00 0.00 0.00 73 1011.9
20260506090534 51 0.0 0.0 0.00 0.00 0.00 72 1012.0
20260506090041 51 0.0 0.0 0.00 0.00 0.00 71 1011.8
20260506085535 51 0.0 0.0 0.00 0.00 0.00 69 1011.8
20260506085035 51 0.0 0.0 0.00 0.00 0.00 66 1011.7
20260506084544 51 0.0 0.0 0.00 0.00 0.00 66 1011.7
20260506084034 51 0.0 0.0 0.00 0.00 0.00 63 1011.6
20260506083538 51 0.0 0.0 0.00 0.00 0.00 66 1011.6
20260506083041 51 0.0 0.0 0.00 0.00 0.00 68 1011.6
20260506082535 50 0.0 0.0 0.00 0.00 0.00 66 1011.6
20260506082035 50 0.0 0.0 0.00 0.00 0.00 67 1011.6
20260506081539 50 0.0 0.0 0.00 0.00 0.00 66 1011.7
20260506081034 50 0.0 0.0 0.00 0.00 0.00 66 1011.7
20260506080534 50 0.0 0.0 0.00 0.00 0.00 67 1011.7
20260506073042 49 0.0 0.0 0.00 0.00 0.00 66 1011.5
20260506072538 48 0.0 0.0 0.00 0.00 0.00 67 1011.5
20260506072035 48 0.0 0.0 0.00 0.00 0.00 68 1011.6
20260506071546 48 0.0 0.0 0.00 0.00 0.00 68 1011.5
20260506071035 48 0.0 0.0 0.00 0.00 0.00 67 1011.5
20260506070534 47 0.0 0.0 0.00 0.00 0.00 67 1011.4
20260506062037 47 0.0 0.0 0.00 0.00 0.00 64 1011.4
20260506061542 46 0.0 0.0 0.00 0.00 0.00 64 1011.3
20260506061035 46 0.0 0.0 0.00 0.00 0.00 64 1011.4
20260506060534 46 0.0 0.0 0.00 0.00 0.00 64 1011.4
20260506051035 44 0.0 0.0 0.00 0.00 0.00 60 1011.7
20260506050535 44 0.0 0.0 0.00 0.00 0.00 59 1011.6
20260506045034 43 0.0 0.0 0.00 0.00 0.00 59 1011.6
20260506044554 43 0.0 0.0 0.00 0.00 0.00 58 1011.7
20260506044034 42 0.0 0.0 0.00 0.00 0.00 58 1011.6
20260506043535 42 0.0 0.0 0.00 0.00 0.00 58 1011.7
20260506043043 42 0.0 0.0 0.00 0.00 0.00 57 1011.5
20260506042537 42 0.0 0.0 0.00 0.00 0.00 57 1011.4
20260506042036 42 0.0 0.0 0.00 0.00 0.00 57 1011.5
20260506041549 42 0.0 0.0 0.00 0.00 0.00 56 1011.4
20260506041046 42 0.0 0.0 0.00 0.00 0.00 56 1011.4
20260506040535 42 0.0 0.0 0.00 0.00 0.00 56 1011.3
20260506040042 42 0.0 0.0 0.00 0.00 0.00 55 1011.3
20260506035535 42 0.0 0.0 0.00 0.00 0.00 55 1011.4
20260506035035 42 0.0 0.0 0.00 0.00 0.00 55 1011.5
20260506034544 42 0.0 0.0 0.00 0.00 0.00 56 1011.4
20260506034034 42 0.0 0.0 0.00 0.00 0.00 56 1011.2
20260506033534 42 0.0 0.0 0.00 0.00 0.00 57 1011.4
20260506033046 42 0.0 0.0 0.00 0.00 0.00 58 1011.4
20260506032535 42 0.0 0.0 0.00 0.00 0.00 57 1011.4
20260506032038 42 0.0 0.0 0.00 0.00 0.00 57 1011.6
20260506031549 42 0.0 0.0 0.00 0.00 0.00 57 1011.5
20260506031035 41 0.0 0.0 0.00 0.00 0.00 57 1011.4
20260506030536 41 0.0 0.0 0.00 0.00 0.00 57 1011.5
20260506030049 41 0.0 0.0 0.00 0.00 0.00 58 1011.7
20260506025534 40 0.0 0.0 0.00 0.00 0.00 58 1011.5
20260506025034 40 0.0 0.0 0.00 0.00 0.00 58 1011.5
20260506024550 40 0.0 0.0 0.00 0.00 0.00 58 1011.6
20260506024036 40 0.0 0.0 0.00 0.00 0.00 58 1011.5
20260506023536 40 0.0 0.0 0.00 0.00 0.00 58 1011.7
20260506023047 40 0.0 0.0 0.00 0.00 0.00 57 1011.8
20260506022533 40 0.0 0.0 0.00 0.00 0.00 57 1011.8
20260506022035 40 0.0 0.0 0.00 0.00 0.00 58 1012.0
20260506021544 40 0.0 0.0 0.00 0.00 0.00 57 1011.8
20260506021036 40 0.0 0.0 0.00 0.00 0.00 57 1012.0
20260506020534 40 0.0 0.0 0.00 0.00 0.00 57 1012.1
20260506020048 41 0.0 0.0 0.00 0.00 0.00 56 1012.2
20260506015539 41 0.0 0.0 0.00 0.00 0.00 56 1012.1
20260506015035 41 0.0 0.0 0.00 0.00 0.00 56 1012.1
20260506014544 40 0.0 0.0 0.00 0.00 0.00 57 1012.2
20260506014034 40 0.0 0.0 0.00 0.00 0.00 57 1012.2
20260506013535 40 0.0 0.0 0.00 0.00 0.00 57 1012.2
20260506013050 40 0.0 0.0 0.00 0.00 0.00 58 1012.3
20260506012535 40 0.0 0.0 0.00 0.00 0.00 58 1012.2
20260506012037 40 0.0 0.0 0.00 0.00 0.00 58 1012.0
20260506011546 40 0.0 0.0 0.00 0.00 0.00 58 1012.1
20260506011036 40 0.0 0.0 0.00 0.00 0.00 57 1012.2
20260506010537 40 0.0 0.0 0.00 0.00 0.00 58 1012.1
20260506010048 40 0.0 0.0 0.00 0.00 0.00 58 1012.2
20260506005535 40 0.0 0.0 0.00 0.00 0.00 58 1012.1
20260506005035 41 0.0 0.0 0.00 0.00 0.00 58 1012.2
20260506004551 41 0.0 0.0 0.00 0.00 0.00 58 1012.1
20260506004035 41 0.0 0.0 0.00 0.00 0.00 58 1012.0
20260506003535 41 0.0 0.0 0.00 0.00 0.00 58 1012.0
20260506003042 41 0.0 0.0 0.00 0.00 0.00 58 1012.1
20260506002537 41 0.0 0.0 0.00 0.00 0.00 59 1012.1
20260506002033 41 0.0 0.0 0.00 0.00 0.00 59 1012.0
20260506001542 41 0.0 0.0 0.00 0.00 0.00 58 1012.0
20260506001035 42 0.0 0.0 0.00 0.00 0.00 57 1012.1
20260506000533 42 0.0 0.0 0.00 0.00 0.00 56 1012.0
20260506000041 42 0.0 0.0 0.00 0.00 0.00 56 1011.9
20260505235532 42 0.0 0.0 0.00 0.00 0.00 57 1011.9
20260505235033 41 0.0 0.0 0.00 0.00 0.00 57 1012.1
20260505234541 41 0.0 0.0 0.00 0.00 0.00 57 1012.2
20260505234035 40 0.0 0.0 0.00 0.00 0.00 60 1012.0
20260505233532 40 0.0 0.0 0.00 0.00 0.00 62 1012.0
20260505233045 40 0.0 0.0 0.00 0.00 0.00 63 1012.1
20260505232534 40 0.0 0.0 0.00 0.00 0.00 63 1012.0
20260505232035 41 0.0 0.0 0.00 0.00 0.00 62 1011.9
20260505231554 41 0.0 0.0 0.00 0.00 0.00 62 1011.9
20260505231033 41 0.0 0.0 0.00 0.00 0.00 64 1011.9
20260505230534 40 0.0 0.0 0.00 0.00 0.00 65 1012.0
20260505230053 40 0.0 0.0 0.00 0.00 0.00 66 1012.0
20260505225533 40 0.0 0.0 0.00 0.00 0.00 67 1012.0
20260505225038 40 0.0 0.0 0.00 0.00 0.00 68 1011.9
20260505224539 40 0.0 0.0 0.00 0.00 0.00 68 1012.1
20260505224035 39 0.0 0.0 0.00 0.00 0.00 69 1012.1
20260505223536 39 0.0 0.0 0.00 0.00 0.00 69 1012.2
20260505223042 40 0.0 0.0 0.00 0.00 0.00 67 1012.2
20260505222533 41 0.0 0.0 0.00 0.00 0.00 65 1012.2
20260505222034 41 0.0 0.0 0.00 0.00 0.00 64 1012.1
20260505221542 41 0.0 0.0 0.00 0.00 0.00 64 1012.4
20260505221036 41 0.0 0.0 0.00 0.00 0.00 65 1012.3
20260505220532 41 0.0 0.0 0.00 0.00 0.00 65 1012.2
20260505220046 41 0.0 0.0 0.00 0.00 0.00 66 1012.3
20260505215534 41 0.0 0.0 0.00 0.00 0.00 67 1012.3
20260505215034 41 0.0 0.0 0.00 0.00 0.00 67 1012.3
20260505214543 41 0.0 0.0 0.00 0.00 0.00 67 1012.3
20260505214034 41 0.0 0.0 0.00 0.00 0.00 67 1012.2
20260505213533 41 0.0 0.0 0.00 0.00 0.00 67 1012.3
20260505213052 41 0.0 0.0 0.00 0.00 0.00 67 1012.3
20260505212533 41 0.0 0.0 0.00 0.00 0.00 68 1012.3
20260505212036 41 0.0 0.0 0.00 0.00 0.00 68 1012.2
20260505211548 41 0.0 0.0 0.00 0.00 0.00 68 1012.3
20260505211039 41 0.0 0.0 0.00 0.00 0.00 68 1012.2
20260505210535 41 0.0 0.0 0.00 0.00 0.00 67 1012.2
20260505210039 41 0.0 0.0 0.00 0.00 0.00 67 1012.2
20260505205538 41 0.0 0.0 0.00 0.00 0.00 68 1012.1
20260505205035 42 0.0 0.0 0.00 0.00 0.00 68 1012.1
20260505204539 42 0.0 0.0 0.00 0.00 0.00 67 1012.1
20260505204034 42 0.0 0.0 0.00 0.00 0.00 67 1012.1
20260505203536 42 0.0 0.0 0.00 0.00 0.00 67 1012.2
20260505203042 43 0.0 0.0 0.00 0.00 0.00 65 1012.3
20260505202535 43 0.0 0.0 0.00 0.00 0.00 66 1012.3
20260505202034 43 0.0 0.0 0.00 0.00 0.00 66 1012.2
20260505201547 43 0.0 0.0 0.00 0.00 0.00 66 1012.3
20260505201034 43 0.0 0.0 0.00 0.00 0.00 66 1012.1
20260505200535 43 0.0 0.0 0.00 0.00 0.00 66 1012.2
20260505200040 44 0.0 0.0 0.00 0.00 0.00 66 1012.3
20260505195535 44 0.0 0.0 0.00 0.00 0.00 65 1012.2
20260505195034 44 0.0 0.0 0.00 0.00 0.00 65 1012.1
20260505194539 44 0.0 0.0 0.00 0.00 0.00 65 1012.1
20260505194034 44 0.0 0.0 0.00 0.00 0.00 65 1012.1
20260505193534 45 0.0 0.0 0.00 0.00 0.00 64 1012.1
20260505193040 45 0.0 0.0 0.00 0.00 0.00 65 1012.1
20260505192535 45 0.0 0.0 0.00 0.00 0.00 65 1012.1
20260505192035 45 0.0 0.0 0.00 0.00 0.00 65 1012.0
20260505191559 46 0.0 0.0 0.00 0.00 0.00 63 1012.2
20260505191034 46 0.0 0.0 0.00 0.00 0.00 62 1012.0
20260505190534 47 0.0 0.0 0.00 0.00 0.00 61 1012.0
20260505190042 47 0.0 0.0 0.00 0.00 0.00 61 1012.0
20260505185534 47 0.0 0.0 0.00 0.00 0.00 60 1011.9
20260505185035 47 0.0 0.0 0.00 0.00 0.00 59 1012.0
20260505184549 48 0.0 0.0 0.00 0.00 0.00 58 1011.9
20260505184036 48 0.0 0.0 0.00 0.00 0.00 58 1011.9
20260505183535 48 0.0 0.0 0.00 0.00 0.00 57 1011.8
20260505183045 49 0.0 0.0 0.00 0.00 0.00 56 1012.0
20260505182535 49 0.0 0.0 0.00 0.00 0.00 56 1012.0
20260505182038 49 0.0 0.0 0.00 0.00 0.00 55 1011.9
20260505181544 49 0.0 0.0 0.00 0.00 0.00 54 1011.8
20260505181035 49 0.0 0.0 0.00 0.00 0.00 55 1011.9
20260505180533 50 0.0 0.0 0.00 0.00 0.00 54 1011.9
20260505180059 50 0.0 0.0 0.00 0.00 0.00 53 1011.9
20260505175536 50 0.0 0.0 0.00 0.00 0.00 52 1011.9
20260505175034 50 0.0 0.0 0.00 0.00 0.00 52 1011.9
20260505174552 50 0.0 0.0 0.00 0.00 0.00 53 1011.8
20260505174038 50 0.0 0.0 0.00 0.00 0.00 53 1011.8
20260505173536 50 0.0 0.0 0.00 0.00 0.00 52 1011.9
20260505173049 50 0.0 0.0 0.00 0.00 0.00 53 1011.7
20260505172537 50 0.0 0.0 0.00 0.00 0.00 53 1011.8
20260505172035 50 0.0 0.0 0.00 0.00 0.00 54 1012.0
20260505171549 50 0.0 0.0 0.00 0.00 0.00 53 1011.9
20260505171037 50 0.0 0.0 0.00 0.00 0.00 54 1011.8
20260505170540 50 0.0 0.0 0.00 0.00 0.00 55 1011.9
20260505170049 50 0.0 0.0 0.00 0.00 0.00 56 1011.7
20260505165536 50 0.0 0.0 0.00 0.00 0.00 55 1011.7